Zurück zum Katalog

COSMOS 2268

AktivMilitärPO
NORAD 22999·PAYLOAD·🇷🇺 Russia

Gestartet Feb 12, 1994 von Plesetsk Cosmodrome

Loading…

Nächste Überflüge (nächste 24 Stunden)

TLE

AktuellSource: Space-Track

Epoche: Sep 14, 2026, 13:20 UTC

1 22999U 94011A   26257.55600752  .00000007  00000-0 -17338-4 0  9992
2 22999  82.5726 283.5937 0010246   7.2296 160.8413 12.61229406500022

Verfolge COSMOS 2268 in Echtzeit mit AllMySat

Download on the App Store